| time (UTC) | temp F | wind direction | speed knots | gust knots | rain 1hr in | rain 24hr in | rain mn in | humidity % | barometer mb |
| 20260504231503 | 58 | 265 | 0.0 | 1.7 | 0.00 | 0.00 | 0.00 | 63 | 1005.7 |
| 20260504231003 | 58 | 265 | 0.0 | 1.7 | 0.00 | 0.00 | 0.00 | 60 | 1005.6 |
| 20260504230503 | 59 | 265 | 0.9 | 5.2 | 0.00 | 0.00 | 0.00 | 60 | 1005.6 |
| 20260504230003 | 59 | 265 | 1.7 | 5.2 | 0.00 | 0.00 | 0.00 | 60 | 1005.5 |
| 20260504225503 | 59 | 265 | 1.7 | 3.5 | 0.00 | 0.00 | 0.00 | 60 | 1005.5 |
| 20260504225003 | 59 | 260 | 1.7 | 4.3 | 0.00 | 0.00 | 0.00 | 60 | 1005.5 |
| 20260504224524 | 59 | 261 | 1.7 | 5.2 | 0.00 | 0.00 | 0.00 | 59 | 1005.3 |
| 20260504224003 | 59 | 270 | 2.6 | 7.8 | 0.00 | 0.00 | 0.00 | 59 | 1005.3 |
| 20260504223503 | 59 | 268 | 3.5 | 7.8 | 0.00 | 0.00 | 0.00 | 58 | 1005.3 |
| 20260504223003 | 59 | 265 | 2.6 | 7.0 | 0.00 | 0.00 | 0.00 | 60 | 1005.2 |
| 20260504222503 | 59 | 261 | 3.5 | 9.6 | 0.00 | 0.00 | 0.00 | 59 | 1005.1 |
| 20260504222003 | 60 | 253 | 4.3 | 11.3 | 0.00 | 0.00 | 0.00 | 57 | 1005.1 |
| 20260504221503 | 60 | 242 | 5.2 | 11.3 | 0.00 | 0.00 | 0.00 | 57 | 1005.2 |
| 20260504221003 | 60 | 237 | 6.1 | 10.4 | 0.00 | 0.00 | 0.00 | 56 | 1005.1 |
| 20260504220503 | 60 | 240 | 6.1 | 13.9 | 0.00 | 0.00 | 0.00 | 57 | 1005.3 |
| 20260504220024 | 61 | 241 | 7.8 | 13.9 | 0.00 | 0.00 | 0.00 | 56 | 1005.3 |
| 20260504215524 | 60 | 246 | 7.8 | 17.4 | 0.00 | 0.00 | 0.00 | 56 | 1005.3 |
| 20260504215003 | 60 | 258 | 6.1 | 14.8 | 0.00 | 0.00 | 0.00 | 57 | 1005.2 |
| 20260504214503 | 61 | 252 | 7.8 | 16.5 | 0.00 | 0.00 | 0.00 | 56 | 1005.1 |
| 20260504214003 | 61 | 249 | 8.7 | 16.5 | 0.00 | 0.00 | 0.00 | 55 | 1004.9 |
| 20260504213503 | 61 | 248 | 8.7 | 17.4 | 0.00 | 0.00 | 0.00 | 55 | 1004.9 |
| 20260504213003 | 61 | 249 | 9.6 | 17.4 | 0.00 | 0.00 | 0.00 | 55 | 1004.9 |
| 20260504212503 | 61 | 250 | 9.6 | 17.4 | 0.00 | 0.00 | 0.00 | 55 | 1004.8 |
| 20260504212003 | 61 | 247 | 9.6 | 17.4 | 0.00 | 0.00 | 0.00 | 54 | 1004.9 |
| 20260504211503 | 62 | 250 | 8.7 | 16.5 | 0.00 | 0.00 | 0.00 | 53 | 1004.7 |
| 20260504211003 | 62 | 251 | 8.7 | 16.5 | 0.00 | 0.00 | 0.00 | 54 | 1004.7 |
| 20260504210503 | 63 | 248 | 7.8 | 16.5 | 0.00 | 0.00 | 0.00 | 55 | 1004.7 |
| 20260504210004 | 62 | 244 | 7.0 | 16.5 | 0.00 | 0.00 | 0.00 | 55 | 1004.6 |
| 20260504205503 | 62 | 245 | 7.8 | 16.5 | 0.00 | 0.00 | 0.00 | 57 | 1004.7 |
| 20260504205024 | 61 | 243 | 8.7 | 17.4 | 0.00 | 0.00 | 0.00 | 56 | 1004.6 |
| 20260504204503 | 62 | 247 | 8.7 | 17.4 | 0.00 | 0.00 | 0.00 | 55 | 1004.6 |
| 20260504204003 | 62 | 248 | 9.6 | 20.0 | 0.00 | 0.00 | 0.00 | 56 | 1004.5 |
| 20260504203524 | 61 | 249 | 10.4 | 20.0 | 0.00 | 0.00 | 0.00 | 56 | 1004.5 |
| 20260504203003 | 61 | 252 | 7.8 | 17.4 | 0.00 | 0.00 | 0.00 | 56 | 1004.3 |
| 20260504202503 | 62 | 251 | 8.7 | 24.3 | 0.00 | 0.00 | 0.00 | 57 | 1004.4 |
| 20260504202003 | 61 | 250 | 10.4 | 24.3 | 0.00 | 0.00 | 0.00 | 57 | 1004.5 |
| 20260504201503 | 61 | 245 | 8.7 | 17.4 | 0.00 | 0.00 | 0.00 | 58 | 1004.6 |
| 20260504201003 | 61 | 247 | 9.6 | 16.5 | 0.00 | 0.00 | 0.00 | 59 | 1004.5 |
| 20260504200503 | 60 | 245 | 8.7 | 16.5 | 0.00 | 0.00 | 0.00 | 60 | 1004.4 |
| 20260504200024 | 60 | 236 | 7.0 | 12.2 | 0.00 | 0.01 | 0.00 | 61 | 1004.4 |
| 20260504195503 | 60 | 229 | 7.0 | 13.0 | 0.00 | 0.01 | 0.00 | 60 | 1004.3 |
| 20260504195003 | 60 | 231 | 7.8 | 13.0 | 0.00 | 0.01 | 0.00 | 60 | 1004.3 |
| 20260504194503 | 60 | 239 | 7.8 | 15.6 | 0.00 | 0.02 | 0.00 | 60 | 1004.4 |
| 20260504194003 | 60 | 239 | 8.7 | 15.6 | 0.00 | 0.02 | 0.00 | 60 | 1004.4 |
| 20260504193503 | 60 | 238 | 9.6 | 16.5 | 0.00 | 0.02 | 0.00 | 60 | 1004.4 |
| 20260504193003 | 60 | 240 | 10.4 | 20.0 | 0.00 | 0.02 | 0.00 | 60 | 1004.4 |
| 20260504192503 | 61 | 237 | 10.4 | 20.0 | 0.00 | 0.02 | 0.00 | 59 | 1004.4 |
| 20260504192003 | 61 | 232 | 9.6 | 16.5 | 0.00 | 0.02 | 0.00 | 60 | 1004.4 |
| 20260504191503 | 61 | 237 | 8.7 | 16.5 | 0.00 | 0.03 | 0.00 | 59 | 1004.5 |
| 20260504191024 | 61 | 239 | 7.8 | 16.5 | 0.00 | 0.03 | 0.00 | 60 | 1004.5 |
| 20260504190504 | 60 | 234 | 8.7 | 17.4 | 0.00 | 0.03 | 0.00 | 63 | 1004.5 |
| 20260504190003 | 58 | 233 | 9.6 | 20.0 | 0.00 | 0.03 | 0.00 | 62 | 1004.5 |
| 20260504185503 | 58 | 233 | 10.4 | 21.7 | 0.00 | 0.04 | 0.00 | 63 | 1004.5 |
| 20260504185003 | 58 | 233 | 11.3 | 21.7 | 0.00 | 0.04 | 0.00 | 62 | 1004.6 |
| 20260504184503 | 58 | 233 | 10.4 | 20.0 | 0.00 | 0.04 | 0.00 | 61 | 1004.6 |
| 20260504184003 | 58 | 233 | 9.6 | 21.7 | 0.00 | 0.05 | 0.00 | 61 | 1004.8 |
| 20260504183503 | 58 | 235 | 9.6 | 21.7 | 0.00 | 0.05 | 0.00 | 63 | 1004.7 |
| 20260504183003 | 58 | 232 | 11.3 | 22.6 | 0.00 | 0.05 | 0.00 | 61 | 1004.8 |
| 20260504182503 | 59 | 233 | 11.3 | 22.6 | 0.00 | 0.06 | 0.00 | 60 | 1004.8 |
| 20260504182003 | 59 | 238 | 9.6 | 17.4 | 0.00 | 0.06 | 0.00 | 62 | 1004.8 |
| 20260504181503 | 58 | 237 | 8.7 | 18.2 | 0.00 | 0.07 | 0.00 | 63 | 1004.9 |
| 20260504181003 | 58 | 235 | 8.7 | 18.2 | 0.00 | 0.07 | 0.00 | 62 | 1005.0 |
| 20260504180503 | 57 | 232 | 6.1 | 17.4 | 0.00 | 0.07 | 0.00 | 63 | 1005.0 |
| 20260504180003 | 56 | 228 | 5.2 | 10.4 | 0.00 | 0.08 | 0.00 | 64 | 1005.1 |
| 20260504175503 | 56 | 231 | 7.0 | 15.6 | 0.00 | 0.08 | 0.00 | 66 | 1005.2 |
| 20260504175003 | 56 | 234 | 9.6 | 17.4 | 0.00 | 0.09 | 0.00 | 64 | 1005.3 |
| 20260504174503 | 55 | 236 | 8.7 | 17.4 | 0.00 | 0.09 | 0.00 | 64 | 1005.4 |
| 20260504174003 | 55 | 236 | 7.8 | 14.8 | 0.00 | 0.09 | 0.00 | 64 | 1005.5 |
| 20260504173503 | 55 | 237 | 8.7 | 15.6 | 0.00 | 0.10 | 0.00 | 63 | 1005.2 |
| 20260504173003 | 56 | 233 | 7.0 | 15.6 | 0.00 | 0.10 | 0.00 | 61 | 1005.2 |
| 20260504172524 | 56 | 227 | 5.2 | 11.3 | 0.00 | 0.11 | 0.00 | 62 | 1005.1 |
| 20260504172024 | 56 | 229 | 6.1 | 12.2 | 0.00 | 0.11 | 0.00 | 59 | 1005.0 |
| 20260504171503 | 56 | 228 | 5.2 | 12.2 | 0.00 | 0.12 | 0.00 | 60 | 1005.1 |
| 20260504171024 | 56 | 210 | 4.3 | 10.4 | 0.00 | 0.12 | 0.00 | 60 | 1005.0 |
| 20260504170503 | 56 | 204 | 5.2 | 10.4 | 0.00 | 0.13 | 0.00 | 59 | 1004.9 |
| 20260504151003 | 57 | 242 | 6.1 | 13.9 | 0.00 | 0.28 | 0.00 | 53 | 1004.9 |
| 20260504150503 | 57 | 239 | 6.1 | 13.9 | 0.00 | 0.28 | 0.00 | 56 | 1005.3 |
| 20260504141003 | 54 | 241 | 9.6 | 16.5 | 0.00 | 0.33 | 0.00 | 52 | 1006.1 |
| 20260504140503 | 55 | 234 | 7.8 | 14.8 | 0.00 | 0.33 | 0.00 | 52 | 1006.1 |
| 20260504130503 | 53 | 245 | 7.0 | 13.9 | 0.00 | 0.37 | 0.00 | 53 | 1006.6 |
| 20260504110503 | 40 | 245 | 5.2 | 9.6 | 0.00 | 0.48 | 0.00 | 74 | 1007.1 |
| 20260504100503 | 35 | 246 | 3.5 | 7.0 | 0.00 | 0.53 | 0.00 | 80 | 1006.6 |
| 20260504082003 | 36 | 252 | 4.3 | 8.7 | 0.00 | 0.55 | 0.00 | 77 | 1006.0 |
| 20260504081503 | 36 | 252 | 3.5 | 7.0 | 0.00 | 0.55 | 0.00 | 77 | 1006.1 |
| 20260504081003 | 35 | 253 | 2.6 | 6.1 | 0.00 | 0.56 | 0.00 | 76 | 1006.1 |
| 20260504080524 | 35 | 255 | 1.7 | 4.3 | 0.00 | 0.56 | 0.00 | 77 | 1006.1 |
| 20260504050503 | 39 | 268 | 5.2 | 8.7 | 0.00 | 0.59 | 0.00 | 70 | 1005.3 |
| 20260504050003 | 39 | 267 | 4.3 | 8.7 | 0.00 | 0.59 | 0.00 | 70 | 1005.3 |
| 20260504045503 | 39 | 263 | 5.2 | 10.4 | 0.00 | 0.59 | 0.00 | 70 | 1005.3 |
| 20260504045003 | 39 | 263 | 6.1 | 11.3 | 0.00 | 0.59 | 0.00 | 70 | 1005.3 |
| 20260504044504 | 39 | 266 | 6.1 | 11.3 | 0.00 | 0.59 | 0.00 | 70 | 1005.1 |
| 20260504044003 | 39 | 267 | 5.2 | 10.4 | 0.00 | 0.59 | 0.00 | 71 | 1005.1 |
| 20260504043524 | 39 | 267 | 4.3 | 8.7 | 0.00 | 0.59 | 0.00 | 71 | 1005.0 |
| 20260504043003 | 39 | 264 | 4.3 | 9.6 | 0.00 | 0.59 | 0.00 | 71 | 1005.0 |
| 20260504042503 | 39 | 262 | 4.3 | 9.6 | 0.00 | 0.59 | 0.00 | 71 | 1005.1 |
| 20260504042024 | 39 | 261 | 4.3 | 9.6 | 0.00 | 0.59 | 0.00 | 71 | 1005.0 |
| 20260504041503 | 39 | 264 | 4.3 | 10.4 | 0.00 | 0.59 | 0.00 | 71 | 1005.0 |
| 20260504041003 | 39 | 263 | 4.3 | 10.4 | 0.00 | 0.59 | 0.00 | 71 | 1005.0 |
| 20260504040503 | 39 | 260 | 4.3 | 8.7 | 0.00 | 0.59 | 0.00 | 71 | 1004.9 |
| 20260504040004 | 39 | 264 | 3.5 | 8.7 | 0.00 | 0.59 | 0.00 | 70 | 1004.9 |
| 20260504035524 | 39 | 265 | 3.5 | 7.0 | 0.00 | 0.59 | 0.59 | 70 | 1004.8 |
| 20260504035003 | 39 | 262 | 3.5 | 7.0 | 0.00 | 0.59 | 0.59 | 70 | 1004.7 |
| 20260504034503 | 39 | 262 | 3.5 | 7.0 | 0.00 | 0.59 | 0.59 | 70 | 1004.9 |
| 20260504034003 | 39 | 266 | 3.5 | 9.6 | 0.00 | 0.59 | 0.59 | 69 | 1004.8 |
| 20260504033524 | 40 | 269 | 3.5 | 9.6 | 0.00 | 0.59 | 0.59 | 68 | 1004.7 |
| 20260504033003 | 40 | 266 | 2.6 | 6.1 | 0.00 | 0.59 | 0.59 | 68 | 1004.6 |
| 20260504032524 | 40 | 264 | 3.5 | 7.8 | 0.00 | 0.59 | 0.59 | 68 | 1004.7 |
| 20260504032024 | 40 | 267 | 3.5 | 7.8 | 0.00 | 0.59 | 0.59 | 68 | 1004.6 |
| 20260504031503 | 41 | 273 | 3.5 | 7.8 | 0.00 | 0.59 | 0.59 | 67 | 1004.7 |
| 20260504031003 | 41 | 274 | 3.5 | 7.0 | 0.00 | 0.59 | 0.59 | 67 | 1004.6 |
| 20260504030524 | 41 | 272 | 3.5 | 12.2 | 0.00 | 0.59 | 0.59 | 67 | 1004.6 |
| 20260504030003 | 41 | 270 | 4.3 | 12.2 | 0.00 | 0.59 | 0.59 | 66 | 1004.5 |
| 20260504025503 | 41 | 268 | 4.3 | 8.7 | 0.00 | 0.59 | 0.59 | 67 | 1004.4 |
| 20260504025003 | 41 | 270 | 4.3 | 9.6 | 0.00 | 0.59 | 0.59 | 67 | 1004.4 |
| 20260504024503 | 41 | 275 | 4.3 | 10.4 | 0.00 | 0.59 | 0.59 | 67 | 1004.4 |
| 20260504024003 | 41 | 271 | 5.2 | 11.3 | 0.00 | 0.59 | 0.59 | 66 | 1004.3 |
| 20260504023503 | 42 | 269 | 5.2 | 11.3 | 0.00 | 0.59 | 0.59 | 66 | 1004.3 |
| 20260504023003 | 42 | 270 | 5.2 | 10.4 | 0.00 | 0.59 | 0.59 | 67 | 1004.3 |
| 20260504022503 | 42 | 269 | 4.3 | 10.4 | 0.00 | 0.59 | 0.59 | 66 | 1004.2 |
| 20260504022003 | 42 | 266 | 4.3 | 13.0 | 0.00 | 0.59 | 0.59 | 67 | 1004.2 |
| 20260504021503 | 42 | 266 | 5.2 | 13.0 | 0.00 | 0.59 | 0.59 | 67 | 1004.2 |
| 20260504021003 | 42 | 268 | 4.3 | 13.0 | 0.00 | 0.59 | 0.59 | 66 | 1004.1 |
| 20260504020503 | 42 | 268 | 5.2 | 13.0 | 0.00 | 0.59 | 0.59 | 65 | 1004.1 |
| 20260504020024 | 42 | 270 | 5.2 | 10.4 | 0.00 | 0.59 | 0.59 | 64 | 1004.0 |
| 20260504015503 | 43 | 271 | 6.1 | 12.2 | 0.00 | 0.59 | 0.59 | 64 | 1003.9 |
| 20260504015003 | 43 | 273 | 5.2 | 12.2 | 0.00 | 0.59 | 0.59 | 64 | 1003.9 |
| 20260504014524 | 43 | 278 | 5.2 | 13.9 | 0.00 | 0.59 | 0.59 | 64 | 1003.8 |
| 20260504014003 | 43 | 275 | 5.2 | 13.9 | 0.00 | 0.59 | 0.59 | 64 | 1003.8 |
| 20260504013503 | 43 | 273 | 5.2 | 13.9 | 0.00 | 0.59 | 0.59 | 63 | 1003.8 |
| 20260504013003 | 43 | 272 | 5.2 | 12.2 | 0.00 | 0.59 | 0.59 | 64 | 1003.8 |
| 20260504012524 | 43 | 276 | 5.2 | 11.3 | 0.00 | 0.59 | 0.59 | 64 | 1003.8 |
| 20260504012003 | 44 | 277 | 5.2 | 13.0 | 0.00 | 0.59 | 0.59 | 64 | 1003.8 |
| 20260504011503 | 44 | 277 | 5.2 | 13.9 | 0.00 | 0.59 | 0.59 | 64 | 1003.7 |
| 20260504011003 | 44 | 279 | 5.2 | 13.9 | 0.00 | 0.59 | 0.59 | 64 | 1003.6 |
| 20260504010503 | 44 | 279 | 5.2 | 13.9 | 0.00 | 0.59 | 0.59 | 64 | 1003.4 |
| 20260504010003 | 44 | 279 | 5.2 | 13.9 | 0.00 | 0.59 | 0.59 | 66 | 1003.4 |
| 20260504005503 | 44 | 278 | 5.2 | 13.0 | 0.00 | 0.59 | 0.59 | 66 | 1003.3 |
| 20260504005004 | 44 | 274 | 5.2 | 13.0 | 0.00 | 0.59 | 0.59 | 68 | 1003.2 |
| 20260504004524 | 45 | 281 | 5.2 | 12.2 | 0.00 | 0.59 | 0.59 | 68 | 1003.2 |
| 20260504004024 | 45 | 284 | 6.1 | 12.2 | 0.00 | 0.59 | 0.59 | 69 | 1003.0 |
| 20260504003503 | 45 | 279 | 6.1 | 12.2 | 0.00 | 0.59 | 0.59 | 70 | 1002.9 |
| 20260504003024 | 45 | 280 | 6.1 | 12.2 | 0.00 | 0.59 | 0.59 | 72 | 1002.7 |
| 20260504002503 | 45 | 283 | 6.1 | 12.2 | 0.00 | 0.59 | 0.59 | 75 | 1002.7 |
| 20260504002003 | 44 | 290 | 5.2 | 12.2 | 0.00 | 0.59 | 0.59 | 80 | 1002.7 |
| 20260504001503 | 44 | 291 | 4.3 | 12.2 | 0.00 | 0.59 | 0.59 | 84 | 1002.6 |
| 20260504001024 | 44 | 286 | 2.6 | 12.2 | 0.00 | 0.59 | 0.59 | 86 | 1002.5 |
| 20260504000503 | 45 | 285 | 0.9 | 3.5 | 0.00 | 0.59 | 0.59 | 86 | 1002.6 |
| 20260504000003 | 45 | 275 | 0.9 | 2.6 | 0.00 | 0.59 | 0.59 | 86 | 1002.5 |
| 20260503235503 | 45 | 275 | 0.9 | 3.5 | 0.00 | 0.59 | 0.59 | 85 | 1002.4 |
| 20260503235024 | 45 | 278 | 1.7 | 3.5 | 0.00 | 0.59 | 0.59 | 85 | 1002.3 |
| 20260503234503 | 46 | 293 | 1.7 | 4.3 | 0.00 | 0.59 | 0.59 | 85 | 1002.2 |
| 20260503234003 | 46 | 299 | 2.6 | 4.3 | 0.00 | 0.59 | 0.59 | 85 | 1002.0 |
| 20260503233503 | 46 | 298 | 2.6 | 4.3 | 0.00 | 0.59 | 0.59 | 85 | 1002.1 |
| 20260503233003 | 46 | 306 | 2.6 | 5.2 | 0.00 | 0.59 | 0.59 | 84 | 1002.1 |
| 20260503232503 | 46 | 305 | 2.6 | 6.1 | 0.00 | 0.59 | 0.59 | 84 | 1002.0 |
| 20260503232024 | 46 | 308 | 2.6 | 6.1 | 0.00 | 0.59 | 0.59 | 84 | 1002.0 |